Location: Unspecified
(0.0000°N, 0.0000°E)
Time: 08:13:41
(UTC+00:00)

Envisat - Pass Details

Date: 17 September 2021
Orbit: 764 x 766 km, 98.2° (Epoch: 17 September)

Event Time Altitude Azimuth Distance (km) Brightness Sun altitude
Rises 04:07:40 0° 31° (NNE) 3,215 6.7 -26.7°
Reaches altitude 10° 04:10:14 10° 42° (NE) 2,292 6.0 -26.1°
Maximum altitude 04:14:35 30° 102° (ESE) 1,359 4.9 -25.0°
Drops below altitude 10° 04:18:57 10° 162° (SSE) 2,301 5.6 -23.9°
Sets 04:21:31 0° 173° (S) 3,230 6.3 -23.2°
